Location: Kawakawa
(35.3830°S, 174.0670°E)
Time: 17:04:00
(UTC+13:00)

A-11 Canister half - Pass Details

Date: 14 December 2019
Orbit: 1525 x 1684 km, 47.3° (Epoch: 27 January)

Event Time Altitude Azimuth Distance (km) Brightness Sun altitude
Rises 00:10:56 0° 237° (WSW) 4,700 12.3 -29.4°
Reaches altitude 10° 00:13:59 10° 234° (SW) 3,724 11.6 -29.6°
Maximum altitude 00:23:25 73° 149° (SSE) 1,628 9.1 -30.1°
Enters shadow 00:28:04 35° 72° (ENE) 2,339 9.6 -30.3°
